This is the latest recevied weather packets stored in our database for station/object DH1NAI-6. If no packets are shown the sender has not sent any weather packets the latest 1 day(s).
| Time | Temp. | Humidity | Pressure | Rain* | Wind** | Luminosity | Snow |
|---|---|---|---|---|---|---|---|
| 1777958065 | 11.11° C | 99% | 1007.6 hPa | 0 mm | 1.34 m/s, 152° | 4 W/m² | - |
| 1777957458 | 11.11° C | 99% | 1007.7 hPa | 0 mm | 0.89 m/s, 148° | 3 W/m² | - |
| 1777956849 | 11.11° C | 99% | 1007.8 hPa | 1.02 mm | 0.89 m/s, 139° | 3 W/m² | - |
| 1777956242 | 11.11° C | 99% | 1007.8 hPa | 1.02 mm | 0.89 m/s, 139° | 4 W/m² | - |
| 1777955633 | 11.11° C | 99% | 1007.7 hPa | 1.02 mm | 0.89 m/s, 139° | 1 W/m² | - |
| 1777955026 | 11.11° C | 99% | 1008.2 hPa | 1.02 mm | 0.45 m/s, 144° | 1 W/m² | - |
| 1777954412 | 11.11° C | 99% | 1008.1 hPa | 1.02 mm | 0 m/s | 0 W/m² | - |
| 1777953810 | 11.11° C | 99% | 1008.3 hPa | 0 mm | 0.45 m/s, 175° | 0 W/m² | - |
| 1777953201 | 11.11° C | 99% | 1008.3 hPa | 1.02 mm | 0.45 m/s, 165° | 0 W/m² | - |
| 1777952577 | 11.11° C | 99% | 1008.1 hPa | 1.02 mm | 0.45 m/s, 160° | 0 W/m² | - |
| 1777951953 | 10.56° C | 99% | 1008.1 hPa | 1.02 mm | 0.89 m/s, 150° | 0 W/m² | - |
| 1777951345 | 10.56° C | 99% | 1008.3 hPa | 0 mm | 0.45 m/s, 167° | 0 W/m² | - |
| 1777950738 | 10.56° C | 99% | 1008.5 hPa | 0 mm | 0.45 m/s, 166° | 0 W/m² | - |
| 1777950129 | 10.56° C | 99% | 1008.6 hPa | 0 mm | 0 m/s | 0 W/m² | - |
| 1777949522 | 11.11° C | 99% | 1008.6 hPa | 1.02 mm | 0 m/s | 0 W/m² | - |
| 1777948913 | 11.11° C | 99% | 1008.9 hPa | 1.02 mm | 0 m/s | 0 W/m² | - |
| 1777948306 | 11.11° C | 99% | 1009.2 hPa | 1.02 mm | 0 m/s | 0 W/m² | - |
| 1777947692 | 11.11° C | 99% | 1009.1 hPa | 1.02 mm | 0 m/s | 0 W/m² | - |
| 1777947090 | 11.11° C | 99% | 1009.3 hPa | 1.02 mm | 0 m/s | 0 W/m² | - |
| 1777946481 | 11.67° C | 98% | 1009.3 hPa | 0 mm | 0.45 m/s, 166° | 0 W/m² | - |
| 1777945857 | 11.67° C | 96% | 1009.3 hPa | 0 mm | 0 m/s | 0 W/m² | - |
| 1777945233 | 11.67° C | 96% | 1009.2 hPa | 0 mm | 0.45 m/s, 178° | 0 W/m² | - |
| 1777944625 | 11.67° C | 96% | 1009.1 hPa | 0 mm | 0.45 m/s, 171° | 0 W/m² | - |
| 1777944018 | 11.67° C | 96% | 1009 hPa | 0 mm | 0.45 m/s, 137° | 0 W/m² | - |
| 1777943409 | 11.67° C | 95% | 1009.1 hPa | 0 mm | 0.89 m/s, 97° | 0 W/m² | - |
* Rain latest hour (hover to see other rain measurements)
** Current wind speed in m/s (hover to see current wind gust speed)